STARLINK-11260, 60997

Orbit data source: Space-Track

STARLINK-11260, 60997 is a payload satellite owned by SpaceX/Seattle (US) in LEO that was launched on Thu, 05 Sep 2024 UTC via an FALCON 9 launch vehicle from the Air Force Eastern Test Range (AFETR). Payloads include a variety of satellites, spacecraft, and rockets equipped with specific instruments for various scientific and technological missions. These include communications satellites like Starlink; space stations such as the ISS; scientific satellites like the Hubble; Earth observation satellites from companies like Planet Labs, Umbra, and HawkEye 360; GPS; miniature CubeSats for education and research; and military/defense satellites.

Not visible in the next 10 days
STARLINK-11260 details
Identifier
60997, 2024-158H
Orbit
LEO
Last TLE update6 hours ago
Origin
Flag of USSpaceX/Seattle (US)
ManufacturerSpaceX/Seattle
MissionPartially operational spacecraft
Bus & MotorSTARLINK V2M, Unknown motor
Mass730 kg wet, ~700 kg dry
Launch date (UTC)
2024-09-05 (3 months ago)
Launch vehicle
FALCON 9
Launch site
Air Force Eastern Test Range (AFETR)
Object type
Payload
Rocket body
Debris
Shape & HBRUnknown
Radar Cross SectionLarge (>1 m²)

Expand to show TLE details & history

TLE from 6 hours ago
0 STARLINK-11260
1 60997U 24158H   24337.17222158  .00055622  00000-0  20001-3 0  9994
2 60997  53.1361  29.8459 0002495  31.5119 328.6055 15.88191347 15157
Epoch: 2024-12-02T04:07Z
Definitive object data (Epoch: 2024-12-02T04:07:59.944Z)
Latitude-0.00007°
Longitude-103.65382°
Altitude306.85 km
Speed7.726 km/s
True Right ascension01h 59m 23s
True Declination0° 00' 00"
Sunlit
Object was in full shadow at TLE epoch
Visualization TLE readout
Latitude43.27975°
Longitude-60.38461°
Altitude310.064 km
Speed7.728 km/s
Apparent Right ascension00h 30m 59s
Apparent Declination6° 48' 44"
Sunlit
Object is in full shadow
Visualization observer readout
Local Sidereal Time08:11:45
Azimuth291.955° WNW
Elevation-14.364°
Doppler factor1
Orbital elements
Apogee altitude309.288 km
Perigee altitude305.952 km
Semi-major axis6,685.757 km
Eccentricity0.0002495
Inclination53.1361°
RAAN29.8459°
Arg. of periapsis31.5119°
True anomaly328.5906°
Mean anomaly328.6055°
Eccentric anomaly328.59805°
Mean motion3.97024 °/min
BSTAR0.00020001
Orbital period90.67 mins
Loading maneuver chart data...
Loading historical data...
Loading historical data...
Loading historical data...
Loading historical data...
Loading historical data...
Loading historical data...
Loading historical data...

STARLINK-11260 Visibility forecast

Observer location: undefined°, undefined

STARLINK-11260 is not visible in the next 10 days
Span
Click to sort rows by Start time (UTC) header in descending order
Start Az.
Max El. time (UTC)
Max El. Az.
Max El.
End time (UTC)
End Az.
|